Location: Banksville Park
(38.5557°N, 75.1182°W)
Time: 14:47:54
(UTC+00:00)

Cosmos 1666 - Pass Details

Date: 19 September 2020
Orbit: 496 x 521 km, 82.5° (Epoch: 27 October)

Event Time Altitude Azimuth Distance (km) Brightness Sun altitude
Rises 09:22:35 0° 354° (N) 2,641 6.4 -16.9°
Reaches altitude 10° 09:24:45 10° 357° (N) 1,746 5.5 -16.5°
Maximum altitude 09:28:34 73° 82° (E) 538 2.9 -15.8°
Drops below altitude 10° 09:32:19 10° 168° (SSE) 1,716 5.3 -15.1°
Sets 09:34:25 0° 170° (S) 2,591 6.2 -14.7°
